Weather observations for the past three days for
Eureka, Skelton Airport
Metric (Imperial)
Date Time (akdt) Wind (kph) Vis. (km) Weather Sky Cond. Temperature (ºC) Relative Humidity Wind Chill (°C) Heat Index (°C) Pressure Precipitation (cm)
Air Dwpt 6 hour altimeter (cm) sea level (mb) 1 hr 3 hr 6 hr
Max. Min.
21 09:56 SW 13 16.09 Overcast BKN065 OVC080 9.4 3.3 9.4 5.6 66% 8 75.87 1013.4
21 08:56 SW 13 16.09 Overcast OVC070 8.3 3.3 71% 6 75.9 1013.4
21 07:56 SW 13 16.09 Overcast SCT075 OVC090 6.7 2.8 76% 4 75.9 1013.6
21 06:56 SW 13 16.09 Light Rain BKN055 OVC070 6.7 3.9 83% 4 75.9 1013.5
21 05:56 SW 17 16.09 Light Rain FEW047 SCT060 OVC075 6.1 3.3 82% 3 75.9 1013.4
21 04:56 SW 13 16.09 Overcast OVC070 5.6 2.8 82% 3 75.92 1013.8
21 03:56 SW 13 16.09 Overcast OVC080 6.1 3.3 10.6 6.1 82% 4 75.95 1013.9
21 02:56 SW 13 16.09 Mostly Cloudy BKN090 6.1 2.8 80% 4 75.95 1014.0
21 01:56 SW 13 16.09 Overcast FEW070 OVC090 6.7 2.2 73% 4 75.97 1014.3
21 00:56 SW 15 16.09 Mostly Cloudy BKN090 6.7 1.7 71% 4 75.97 1014.5
20 23:56 SW 13 16.09 Fair CLR 7.2 1.1 66% 5 75.97 1014.4
20 22:56 SW 9 16.09 A Few Clouds FEW110 8.3 2.2 66% 7 75.97 1014.1
20 21:56 S 13 16.09 Fair CLR 10.6 2.8 18.3 10.6 59% 75.95 1013.8
20 20:56 S 7 16.09 Fair CLR 13.3 2.8 49% 75.95 1013.7
20 19:56 SE 15 16.09 Fair CLR 15 -2.8 29% 75.95 1013.9
20 18:56 E 15 16.09 Fair CLR 16.7 -2.8 26% 75.95 1014.0
20 17:56 SE 15 16.09 Fair CLR 17.8 -2.2 26% 75.97 1014.2
20 16:56 SE 17 16.09 Fair CLR 17.2 -2.8 26% 75.97 1014.5
20 15:56 SE 15 16.09 Fair CLR 17.2 -3.3 18.3 13.3 25% 76 1014.8
20 14:56 E 15 16.09 Fair CLR 17.8 -1.7 27% 76.02 1014.8
20 13:56 Vrbl 11 16.09 Fair CLR 16.7 -1.7 29% 76.05 1015.4
20 12:56 Vrbl 7 14.48 Fair CLR 16.1 0 34% 76.07 1015.7
20 11:56 Vrbl 9 16.09 Fair CLR 15 -1.7 32% 76.1 1015.9
20 10:56 E 15 16.09 Fair CLR 15.6 1.1 38% 76.12 1016.1
20 09:56 E 15 16.09 Fair CLR 13.9 3.9 13.9 6.1 51% 76.15 1016.3
20 08:56 N 11 16.09 Fair CLR 12.8 3.3 53% 76.15 1016.5
20 07:56 SW 7 16.09 Fair CLR 8.9 5.6 80% 8 76.17 1017.2
20 06:56 SW 11 16.09 Fair CLR 7.2 5 86% 5 76.17 1017.5
20 05:56 SW 7 16.09 Fair CLR 6.7 5 89% 6 76.17 1017.2
20 04:56 SW 11 16.09 Fair CLR 6.1 5 93% 4 76.17 1017.2
20 03:56 SW 11 16.09 Fair CLR 6.7 5.6 12.2 6.7 93% 5 76.17 1017.2
20 02:56 SW 13 16.09 Mostly Cloudy BKN060 7.8 6.1 89% 6 76.17 1017.1
20 01:56 SW 9 16.09 A Few Clouds FEW075 7.8 5.6 86% 6 76.2 1017.3
20 00:56 SW 11 16.09 Fair CLR 8.3 5.6 83% 7 76.17 1017.3
19 23:56 SW 11 16.09 A Few Clouds FEW075 9.4 6.1 80% 8 76.17 1017.1
19 22:56 SW 7 16.09 Fair CLR 10.6 4.4 66% 76.17 1017.1
19 21:56 SW 9 16.09 Fair CLR 12.2 3.9 18.3 12.2 57% 76.15 1016.9
19 20:56 Calm 16.09 Fair CLR 13.9 2.2 45% 76.12 1016.6
19 19:56 W 13 16.09 Overcast BKN080 OVC100 14.4 3.3 48% 76.1 1016.4
19 18:56 NW 15 16.09 Overcast SCT070 OVC100 13.9 3.9 51% 76.1 1016.7
19 17:56 S 7 16.09 Fair CLR 16.7 0.6 34% 76.1 1016.4
19 16:56 Calm 16.09 A Few Clouds FEW120 17.2 0.6 33% 76.12 1016.6
19 15:56 NE 13 16.09 Partly Cloudy SCT060 16.1 2.2 17.2 10.6 39% 76.12 1017.1
19 14:56 Calm 16.09 Partly Cloudy SCT055 SCT110 16.7 2.8 40% 76.15 1017.2
19 13:56 S 11 16.09 Mostly Cloudy BKN049 16.1 3.3 43% 76.17 1017.5
19 12:56 E 11 16.09 Fair CLR 15 3.9 48% 76.2 1017.8
19 11:56 Vrbl 6 16.09 Fair CLR 14.4 3.9 50% 76.2 1017.9
19 10:56 Calm 16.09 Fair CLR 12.2 3.9 57% 76.2 1017.8
19 09:56 SW 9 16.09 A Few Clouds FEW050 10.6 5 10.6 3.9 69% 76.23 1018.0
19 08:56 SW 11 16.09 Fair CLR 8.9 4.4 74% 7 76.23 1017.8
19 07:56 SW 11 16.09 Fair CLR 7.8 3.9 77% 6 76.23 1017.9
19 06:56 SW 13 16.09 Fair CLR 5.6 3.3 85% 3 76.25 1018.2
19 05:56 SW 17 G 26 16.09 Fair CLR 4.4 3.3 93% 1 76.25 1018.4
19 04:56 SW 22 G 30 16.09 Fair CLR 3.9 2.2 89% -0 76.23 1018.2
19 03:56 SW 24 16.09 Partly Cloudy SCT075 3.9 2.8 12.8 3.9 93% -0 76.23 1017.9
19 02:56 SW 19 16.09 Fair CLR 4.4 2.8 89% 1 76.23 1018.2
19 01:56 SW 20 G 30 16.09 Partly Cloudy SCT075 5 3.3 89% 1 76.23 1017.8
19 00:56 SW 17 16.09 Fair CLR 5.6 3.9 89% 3 76.2 1017.7
18 23:56 SW 17 G 26 16.09 Fair CLR 6.7 5 89% 4 76.17 1017.4
18 22:56 SW 17 G 26 16.09 Fair CLR 9.4 6.7 83% 7 76.12 1016.5
18 21:56 SW 13 16.09 Mostly Cloudy BKN090 BKN100 12.8 6.1 18.9 12.8 64% 76.12 1016.0
18 20:56 SW 19 G 30 16.09 Overcast OVC085 15 2.8 44% 76.07 1015.4
18 19:56 SW 19 G 28 16.09 Overcast OVC080 16.1 2.2 39% 76.05 1015.0
18 18:56 SW 19 G 33 16.09 Fair CLR 17.2 2.8 38% 76.05 1015.0
18 17:56 SW 17 G 30 16.09 Fair CLR 17.8 3.3 38% 76.05 1015.0
18 16:56 SW 22 G 33 16.09 Fair CLR 17.2 3.9 41% 76.05 1015.4
18 14:56 SW 9 16.09 Partly Cloudy SCT060 16.7 2.8 40% 76.07 1015.6
18 13:56 Vrbl 9 16.09 A Few Clouds FEW055 17.8 4.4 41% 76.1 1015.7
18 12:56 Vrbl 7 16.09 Mostly Cloudy FEW049 SCT060 BKN080 17.8 5 43% 76.12 1016.1
18 11:56 Vrbl 6 16.09 Mostly Cloudy BKN045 15.6 4.4 48% 76.15 1016.4
18 10:56 SE 7 16.09 A Few Clouds FEW037 14.4 5.6 56% 76.17 1016.8
Date Time (akdt) Wind (kph) Vis. (km) Weather Sky Cond. Air Dwpt Max. Min. Relative Humidity Wind Chill (°C) Heat Index (°C) altimeter (cm) sea level (mb) 1 hr 3 hr 6 hr
6 hour
Temperature (ºC) Pressure Precipitation (cm)